DW1274 Weather Reports


Display with metric or nautical units.
time (UTC)temp
F
wind
direction
speed
MPH
gust
MPH
rain 1hr
in
rain 24hr
in
rain mn
in
humidity
%
barometer
mb
20260506024230 67 0 0.0 0.0 0.00 0.04 0.04 79 1015.3
20260506023230 68 219 2.0 5.0 0.00 0.04 0.04 77 1015.3
20260506022730 68 226 1.0 5.0 0.00 0.04 0.04 77 1015.3
20260506021221 69 0 0.0 2.0 0.00 0.04 0.04 75 1015.0
20260506020715 69 0 0.0 2.0 0.00 0.04 0.04 74 1014.8
20260506015715 70 203 1.0 2.0 0.00 0.04 0.04 73 1014.8
20260506015216 71 0 1.0 3.0 0.00 0.04 0.04 72 1014.8
20260506014707 71 211 2.0 4.0 0.00 0.04 0.04 71 1014.6
20260506013702 71 0 2.0 4.0 0.00 0.04 0.04 71 1014.5
20260506013202 71 141 2.0 4.0 0.00 0.04 0.04 70 1014.5
20260506012201 72 142 4.0 6.0 0.00 0.04 0.04 69 1014.4
20260506011701 72 141 4.0 7.0 0.00 0.04 0.04 69 1014.4
20260506011201 72 108 4.0 9.0 0.00 0.04 0.04 69 1014.4
20260506010701 72 130 5.0 9.0 0.00 0.04 0.04 68 1014.3
20260506010200 72 101 4.0 9.0 0.00 0.04 0.04 68 1014.3
20260506005200 72 162 3.0 8.0 0.00 0.04 0.04 67 1014.3
20260506003705 73 131 3.0 7.0 0.00 0.04 0.04 66 1014.2
20260506003201 73 119 3.0 7.0 0.00 0.04 0.04 66 1014.2
20260506002701 73 130 3.0 6.0 0.00 0.04 0.04 65 1014.1
20260506002201 73 85 4.0 8.0 0.00 0.04 0.04 64 1014.1
20260506001701 74 85 5.0 9.0 0.00 0.04 0.04 64 1014.1
20260506001200 74 67 5.0 9.0 0.00 0.04 0.04 63 1014.1
20260506000701 74 103 4.0 9.0 0.01 0.04 0.04 62 1013.9
20260506000200 74 102 4.0 9.0 0.01 0.04 0.04 62 1013.8
20260505235700 75 104 4.0 9.0 0.01 0.04 0.04 61 1013.8
20260505235200 75 107 4.0 9.0 0.01 0.04 0.04 60 1013.8
20260505234700 75 116 5.0 9.0 0.01 0.04 0.04 60 1013.8
20260505234205 75 111 5.0 10.0 0.01 0.04 0.04 59 1013.8
20260505233702 75 104 5.0 10.0 0.01 0.04 0.04 59 1013.7
20260505233201 76 147 5.0 10.0 0.01 0.04 0.04 58 1013.7
20260505232701 76 88 6.0 10.0 0.01 0.04 0.04 58 1013.7
20260505232201 76 119 5.0 10.0 0.01 0.04 0.04 57 1013.6
20260505231701 76 99 6.0 10.0 0.01 0.04 0.04 57 1013.7
20260505231201 76 128 6.0 11.0 0.00 0.04 0.04 56 1013.7
20260505230702 76 68 6.0 11.0 0.00 0.03 0.03 56 1013.6
20260505230201 77 126 6.0 11.0 0.00 0.03 0.03 55 1013.7
20260505225701 77 129 5.0 9.0 0.00 0.03 0.03 56 1013.7
20260505225202 77 82 4.0 8.0 0.00 0.03 0.03 56 1013.6
20260505224700 77 106 5.0 12.0 0.00 0.03 0.03 56 1013.6
20260505224201 77 16 6.0 12.0 0.00 0.03 0.03 56 1013.6
20260505223704 77 89 6.0 11.0 0.00 0.03 0.03 56 1013.6
20260505223201 77 97 6.0 11.0 0.01 0.03 0.03 56 1013.5
20260505222700 77 70 8.0 13.0 0.03 0.03 0.03 56 1013.5
20260505222202 78 98 8.0 13.0 0.03 0.03 0.03 55 1013.5
20260505221701 78 93 6.0 13.0 0.03 0.03 0.03 56 1013.4
20260505221202 78 115 7.0 15.0 0.03 0.03 0.03 56 1013.6
20260505220702 78 117 7.0 15.0 0.03 0.03 0.03 56 1013.6
20260505220202 78 138 6.0 12.0 0.03 0.03 0.03 56 1013.6
20260505214700 78 56 7.0 13.0 0.03 0.03 0.03 54 1013.4
20260505214201 78 120 7.0 13.0 0.03 0.03 0.03 54 1013.4
20260505213701 78 103 7.0 13.0 0.03 0.03 0.03 54 1013.5
20260505213201 78 85 7.0 13.0 0.02 0.02 0.02 54 1013.5
20260505212701 78 32 6.0 13.0 0.00 0.00 0.00 53 1013.4
20260505212201 78 72 7.0 14.0 0.00 0.00 0.00 54 1013.4
20260505211702 79 128 7.0 14.0 0.00 0.00 0.00 54 1013.3
20260505210701 78 117 5.0 14.0 0.00 0.00 0.00 54 1013.6
20260505205701 78 103 7.0 14.0 0.00 0.00 0.00 55 1013.6
20260505205200 78 90 7.0 12.0 0.00 0.00 0.00 55 1013.6
20260505204700 79 86 6.0 12.0 0.00 0.00 0.00 55 1013.7
20260505202200 80 59 7.0 13.0 0.00 0.00 0.00 54 1013.8
20260505201700 80 129 7.0 13.0 0.00 0.00 0.00 54 1013.7
20260505200701 79 51 7.0 13.0 0.00 0.00 0.00 54 1013.9
20260505200201 80 59 7.0 13.0 0.00 0.00 0.00 55 1013.9
20260505195700 80 115 5.0 10.0 0.00 0.00 0.00 54 1013.7
20260505195202 80 104 6.0 11.0 0.00 0.00 0.00 53 1013.9
20260505194700 80 75 6.0 12.0 0.00 0.00 0.00 52 1013.8
20260505194203 80 113 7.0 12.0 0.00 0.00 0.00 52 1014.0
20260505193701 80 136 8.0 13.0 0.00 0.00 0.00 52 1014.0
20260505193202 81 128 8.0 13.0 0.00 0.00 0.00 51 1014.0
20260505192701 82 138 6.0 13.0 0.00 0.00 0.00 51 1014.0
20260505191702 82 318 3.0 10.0 0.00 0.00 0.00 49 1014.1
20260505191202 81 16 4.0 14.0 0.00 0.00 0.00 49 1014.3
20260505190702 80 106 5.0 14.0 0.00 0.00 0.00 50 1014.3
20260505190201 80 123 4.0 9.0 0.00 0.00 0.00 50 1014.4
20260505185701 81 109 4.0 9.0 0.00 0.00 0.00 49 1014.4
20260505185201 81 210 4.0 12.0 0.00 0.00 0.00 49 1014.5
20260505184708 82 72 3.0 12.0 0.00 0.00 0.00 49 1014.5
20260505184200 82 115 3.0 6.0 0.00 0.00 0.00 49 1014.6
20260505183702 82 140 3.0 7.0 0.00 0.00 0.00 50 1014.7
20260505182701 83 145 2.0 7.0 0.00 0.00 0.00 48 1014.8
20260505182201 83 253 2.0 8.0 0.00 0.00 0.00 47 1014.9
20260505181702 81 277 2.0 8.0 0.00 0.00 0.00 48 1014.9
20260505181200 81 20 3.0 8.0 0.00 0.00 0.00 50 1014.9
20260505180701 81 51 3.0 8.0 0.00 0.00 0.00 49 1014.9
20260505175702 80 157 2.0 7.0 0.00 0.00 0.00 50 1015.1
20260505175205 79 312 3.0 7.0 0.00 0.00 0.00 50 1015.2
20260505174701 80 44 4.0 7.0 0.00 0.00 0.00 50 1015.2
20260505174200 80 306 4.0 7.0 0.00 0.00 0.00 50 1015.3
20260505173201 80 26 2.0 6.0 0.00 0.00 0.00 50 1015.4
20260505172701 79 0 2.0 6.0 0.00 0.00 0.00 51 1015.5
20260505172200 79 130 2.0 6.0 0.00 0.00 0.00 53 1015.5
20260505171701 79 136 2.0 8.0 0.00 0.00 0.00 51 1015.4
20260505171200 78 0 3.0 8.0 0.00 0.00 0.00 52 1015.4
20260505170701 78 97 4.0 8.0 0.00 0.00 0.00 54 1015.6
20260505170201 78 77 4.0 8.0 0.00 0.00 0.00 53 1015.6
20260505165701 78 6 4.0 9.0 0.00 0.00 0.00 54 1015.7
20260505163701 78 228 4.0 15.0 0.00 0.00 0.00 54 1015.9
20260505163201 78 88 4.0 15.0 0.00 0.00 0.00 53 1015.9
20260505162702 77 6 3.0 10.0 0.00 0.00 0.00 56 1015.9
20260505162200 77 143 3.0 7.0 0.00 0.00 0.00 55 1016.0
20260505161701 77 76 3.0 8.0 0.00 0.00 0.00 55 1016.1
20260505161200 78 96 3.0 10.0 0.00 0.00 0.00 55 1016.1
20260505160701 78 110 4.0 10.0 0.00 0.00 0.00 57 1016.0
20260505160202 78 74 4.0 10.0 0.00 0.00 0.00 56 1016.1
20260505153202 78 117 4.0 12.0 0.00 0.00 0.00 56 1016.1
20260505152701 77 124 4.0 12.0 0.00 0.00 0.00 58 1016.1
20260505152202 76 0 4.0 8.0 0.00 0.00 0.00 59 1016.1
20260505151701 76 89 4.0 9.0 0.00 0.00 0.00 62 1016.1
20260505151200 76 104 4.0 9.0 0.00 0.00 0.00 62 1016.1
20260505150700 76 94 3.0 9.0 0.00 0.00 0.00 62 1016.0
20260505150202 76 0 3.0 6.0 0.00 0.00 0.00 61 1016.0
20260505140201 74 158 3.0 9.0 0.00 0.00 0.00 69 1016.0
20260505130201 71 124 2.0 5.0 0.00 0.00 0.00 77 1015.6
20260505124202 68 148 1.0 5.0 0.00 0.00 0.00 84 1015.5
20260505123701 66 0 2.0 5.0 0.00 0.00 0.00 88 1015.5
20260505123201 65 72 2.0 5.0 0.00 0.00 0.00 91 1015.5
20260505122702 64 80 0.0 4.0 0.00 0.00 0.00 95 1015.5
20260505122201 63 0 0.0 2.0 0.00 0.00 0.00 97 1015.7
20260505121701 62 0 0.0 2.0 0.00 0.00 0.00 98 1015.8
20260505121202 61 0 0.0 1.0 0.00 0.00 0.00 99 1015.8
20260505120701 60 0 0.0 1.0 0.00 0.00 0.00 98 1015.7
20260505120201 59 0 0.0 0.0 0.00 0.00 0.00 99 1015.5
20260505115700 59 0 0.0 0.0 0.00 0.00 0.00 99 1015.5
20260505115201 58 0 0.0 0.0 0.00 0.00 0.00 99 1015.4
20260505114202 57 0 0.0 0.0 0.00 0.00 0.00 99 1015.2
20260505113701 56 0 0.0 0.0 0.00 0.00 0.00 99 1015.2
20260505112702 55 0 0.0 0.0 0.00 0.00 0.00 99 1015.3
20260505112200 54 0 0.0 2.0 0.00 0.00 0.00 99 1015.3
20260505111702 54 241 0.0 2.0 0.00 0.00 0.00 99 1015.2
20260505111202 54 0 0.0 0.0 0.00 0.00 0.00 99 1015.2
20260505110702 54 0 0.0 0.0 0.00 0.00 0.00 98 1015.0
20260505110202 55 0 0.0 2.0 0.00 0.00 0.00 99 1015.0
20260505102202 55 0 0.0 0.0 0.00 0.00 0.00 98 1014.7
20260505101702 55 0 0.0 1.0 0.00 0.00 0.00 98 1014.7
20260505100201 55 285 1.0 2.0 0.00 0.00 0.00 98 1014.6
20260505095702 55 233 1.0 2.0 0.00 0.00 0.00 98 1014.5
20260505095202 55 0 0.0 0.0 0.00 0.00 0.00 98 1014.5
20260505094701 55 47 0.0 0.0 0.00 0.00 0.00 98 1014.4
20260505094201 55 0 0.0 2.0 0.00 0.00 0.00 98 1014.3
20260505093702 55 0 0.0 2.0 0.00 0.00 0.00 97 1014.3
20260505093201 56 26 0.0 2.0 0.00 0.00 0.00 97 1014.2
20260505092702 56 0 0.0 0.0 0.00 0.00 0.00 98 1014.2
20260505092202 55 0 0.0 1.0 0.00 0.00 0.00 97 1014.2
20260505091702 55 0 0.0 1.0 0.00 0.00 0.00 97 1014.1
20260505091202 56 0 0.0 2.0 0.00 0.00 0.00 97 1014.0
20260505090702 56 0 0.0 2.0 0.00 0.00 0.00 97 1014.0
20260505090207 55 258 0.0 1.0 0.00 0.00 0.00 97 1013.9
20260505085702 55 0 0.0 1.0 0.00 0.00 0.00 97 1013.9
20260505085202 55 0 0.0 0.0 0.00 0.00 0.00 97 1013.9
20260505084700 55 0 0.0 0.0 0.00 0.00 0.00 97 1013.9
20260505083701 56 0 0.0 0.0 0.00 0.00 0.00 97 1013.9
20260505083203 56 0 0.0 0.0 0.00 0.00 0.00 97 1014.0
20260505082702 56 0 0.0 0.0 0.00 0.00 0.00 97 1013.9
20260505082202 56 0 0.0 0.0 0.00 0.00 0.00 97 1013.9
20260505081701 56 0 0.0 1.0 0.00 0.00 0.00 96 1013.9
20260505080701 56 0 0.0 0.0 0.00 0.00 0.00 96 1013.8
20260505080202 56 0 0.0 0.0 0.00 0.00 0.00 96 1013.7
20260505075202 56 0 0.0 1.0 0.00 0.00 0.00 96 1013.9
20260505072702 57 0 0.0 1.0 0.00 0.00 0.00 95 1014.1
20260505072202 57 0 0.0 1.0 0.00 0.00 0.00 95 1014.2
20260505071701 57 3 0.0 1.0 0.00 0.00 0.00 95 1014.2
20260505071201 57 0 0.0 0.0 0.00 0.00 0.00 95 1014.3
20260505070702 57 0 0.0 0.0 0.00 0.00 0.00 95 1014.3
20260505070202 57 0 0.0 1.0 0.00 0.00 0.00 95 1014.4
20260505065202 58 0 0.0 1.0 0.00 0.00 0.00 94 1014.5
20260505064702 57 0 0.0 1.0 0.00 0.00 0.00 94 1014.4
20260505064202 58 0 0.0 1.0 0.00 0.00 0.00 94 1014.5
20260505063201 58 0 0.0 0.0 0.00 0.00 0.00 94 1014.5
20260505062702 58 0 0.0 0.0 0.00 0.00 0.00 94 1014.5
20260505062202 58 0 0.0 0.0 0.00 0.00 0.00 94 1014.6
20260505061702 58 0 0.0 0.0 0.00 0.00 0.00 93 1014.7
20260505061202 58 0 0.0 0.0 0.00 0.00 0.00 93 1014.8
20260505060651 58 0 0.0 2.0 0.00 0.00 0.00 93 1014.8
20260505060153 58 0 0.0 2.0 0.00 0.00 0.00 93 1014.9
20260505055651 58 0 0.0 1.0 0.00 0.00 0.00 92 1015.0
20260505055152 59 0 0.0 1.0 0.00 0.00 0.00 92 1015.0
20260505054657 58 0 0.0 1.0 0.00 0.00 0.00 92 1015.0
20260505054153 59 0 0.0 0.0 0.00 0.00 0.00 91 1015.0
20260505053653 59 0 0.0 0.0 0.00 0.00 0.00 91 1015.0
20260505053153 59 0 0.0 0.0 0.00 0.00 0.00 91 1015.0
20260505052653 59 0 0.0 0.0 0.00 0.00 0.00 91 1015.1
20260505052153 59 0 0.0 0.0 0.00 0.00 0.00 91 1015.3
20260505051147 60 0 0.0 0.0 0.00 0.00 0.00 90 1015.3
20260505050138 60 0 0.0 0.0 0.00 0.00 0.00 90 1015.5
20260505041632 63 23 0.0 2.0 0.00 0.00 0.00 84 1015.9
20260505041130 63 0 0.0 0.0 0.00 0.00 0.00 82 1015.9
20260505040630 64 0 0.0 0.0 0.00 0.00 0.00 81 1016.0
20260505040130 64 0 0.0 0.0 0.00 0.00 0.00 81 1015.9
20260505035130 65 0 1.0 2.0 0.00 0.00 0.00 79 1015.9
20260505034630 66 0 1.0 2.0 0.00 0.00 0.00 79 1015.9
20260505034130 66 255 1.0 3.0 0.00 0.00 0.00 78 1015.9
20260505033109 66 131 1.0 3.0 0.00 0.00 0.00 78 1015.7
20260505032610 66 163 1.0 2.0 0.00 0.00 0.00 78 1015.7
20260505032110 67 0 1.0 3.0 0.00 0.00 0.00 77 1015.7
20260505031609 67 60 1.0 3.0 0.00 0.00 0.00 77 1015.6
20260505031102 67 77 2.0 4.0 0.00 0.00 0.00 77 1015.6
20260505025602 67 95 2.0 4.0 0.00 0.00 0.00 76 1015.6
20260505025102 67 102 3.0 7.0 0.00 0.00 0.00 76 1015.5